• In Czech Republic
  • List of Countries
  • For 7 days
  • Water Temperature
  • Satellite Maps
  • Weather Map
  • Weather Widgets
  • user-avatar
    Login

    Hourly Weather Stepanakert

    Today, 22 August, Tuesday

    Time Temperature Precipitation Wind Pressure Humidity
    00:00 +24°C° 0 mm 1 mps 691 mmHg 59%
    01:00 +23°C° 0 mm 1 mps 691 mmHg 59%
    02:00 +23°C° 0 mm 1 mps 690 mmHg 59%
    03:00 +23°C° 0 mm 1 mps 690 mmHg 59%
    04:00 +23°C° 0 mm 1 mps 691 mmHg 58%
    05:00 +23°C° 0 mm 1 mps 691 mmHg 57%
    06:00 +23°C° 0 mm 1 mps 691 mmHg 57%
    07:00 +25°C° 0 mm 2 mps 691 mmHg 49%
    08:00 +27°C° 0 mm 2 mps 692 mmHg 42%
    09:00 +30°C° 0 mm 2 mps 692 mmHg 35%
    10:00 +31°C° 0 mm 2 mps 692 mmHg 32%
    11:00 +33°C° 0 mm 3 mps 691 mmHg 29%
    12:00 +34°C° 0 mm 3 mps 691 mmHg 26%
    13:00 +35°C° 0 mm 3 mps 691 mmHg 26%
    14:00 +35°C° 0 mm 3 mps 691 mmHg 25%
    15:00 +36°C° 0 mm 3 mps 690 mmHg 25%
    16:00 +35°C° 0 mm 3 mps 690 mmHg 28%
    17:00 +34°C° 0 mm 2 mps 690 mmHg 30%
    18:00 +31°C° 0 mm 2 mps 690 mmHg 33%
    19:00 +30°C° 0 mm 2 mps 690 mmHg 37%
    20:00 +28°C° 0 mm 2 mps 690 mmHg 41%
    21:00 +26°C° 0 mm 2 mps 690 mmHg 45%
    22:00 +25°C° 0 mm 2 mps 690 mmHg 47%
    23:00 +25°C° 0 mm 2 mps 690 mmHg 49%

    Tomorrow, 23 August, Wednesday

    Time Temperature Precipitation Wind Pressure Humidity
    00:00 +24°C° 0 mm 2 mps 690 mmHg 51%
    01:00 +24°C° 0 mm 2 mps 690 mmHg 52%
    02:00 +23°C° 0 mm 2 mps 690 mmHg 53%
    03:00 +23°C° 0 mm 1 mps 690 mmHg 54%
    04:00 +23°C° 0 mm 1 mps 690 mmHg 54%
    05:00 +23°C° 0 mm 1 mps 691 mmHg 54%
    06:00 +23°C° 0 mm 1 mps 691 mmHg 54%
    07:00 +25°C° 0 mm 2 mps 691 mmHg 46%
    08:00 +27°C° 0 mm 2 mps 692 mmHg 38%
    09:00 +30°C° 0 mm 2 mps 692 mmHg 30%
    10:00 +31°C° 0 mm 3 mps 692 mmHg 28%
    11:00 +33°C° 0 mm 3 mps 692 mmHg 26%
    12:00 +34°C° 0 mm 4 mps 692 mmHg 23%
    13:00 +35°C° 0 mm 4 mps 692 mmHg 23%
    14:00 +35°C° 0 mm 4 mps 691 mmHg 23%
    15:00 +36°C° 0 mm 4 mps 691 mmHg 23%
    16:00 +34°C° 0 mm 4 mps 691 mmHg 27%
    17:00 +33°C° 0 mm 4 mps 691 mmHg 30%
    18:00 +32°C° 0 mm 4 mps 691 mmHg 34%
    19:00 +29°C° 0 mm 3 mps 691 mmHg 38%
    20:00 +27°C° 0 mm 2 mps 691 mmHg 43%
    21:00 +25°C° 0 mm 1 mps 692 mmHg 48%
    22:00 +24°C° 0 mm 1 mps 692 mmHg 49%
    23:00 +24°C° 0 mm 1 mps 692 mmHg 50%

    Day after tomorrow, 24 August, Thursday

    Time Temperature Precipitation Wind Pressure Humidity
    00:00 +23°C° 0 mm 1 mps 692 mmHg 51%
    01:00 +23°C° 0 mm 1 mps 692 mmHg 51%
    02:00 +23°C° 0 mm 1 mps 692 mmHg 52%
    03:00 +22°C° 0 mm 1 mps 692 mmHg 53%
    04:00 +23°C° 0 mm 1 mps 693 mmHg 53%
    05:00 +23°C° 0 mm 1 mps 693 mmHg 53%
    06:00 +23°C° 0 mm 1 mps 694 mmHg 53%
    07:00 +25°C° 0 mm 2 mps 694 mmHg 44%
    08:00 +27°C° 0 mm 2 mps 695 mmHg 36%
    09:00 +29°C° 0 mm 2 mps 695 mmHg 27%
    10:00 +30°C° 0 mm 3 mps 695 mmHg 25%
    11:00 +33°C° 0 mm 4 mps 695 mmHg 23%
    12:00 +34°C° 0 mm 4 mps 695 mmHg 21%
    13:00 +34°C° 0 mm 4 mps 695 mmHg 21%
    14:00 +34°C° 0 mm 5 mps 694 mmHg 21%
    15:00 +35°C° 0 mm 5 mps 694 mmHg 22%
    16:00 +33°C° 0 mm 5 mps 694 mmHg 25%
    17:00 +32°C° 0 mm 4 mps 694 mmHg 28%
    18:00 +29°C° 0 mm 4 mps 694 mmHg 31%
    19:00 +27°C° 0 mm 3 mps 694 mmHg 35%
    20:00 +26°C° 0 mm 3 mps 694 mmHg 40%
    21:00 +24°C° 0 mm 2 mps 694 mmHg 45%
    22:00 +23°C° 0 mm 2 mps 694 mmHg 46%
    23:00 +23°C° 0 mm 2 mps 694 mmHg 48%

    25 August, Friday

    Time Temperature Precipitation Wind Pressure Humidity
    00:00 +21°C° 0 mm 2 mps 694 mmHg 50%
    01:00 +21°C° 0 mm 2 mps 694 mmHg 50%
    02:00 +20°C° 0 mm 2 mps 694 mmHg 50%
    03:00 +21°C° 0 mm 1 mps 694 mmHg 51%
    04:00 +21°C° 0 mm 1 mps 695 mmHg 49%
    05:00 +21°C° 0 mm 1 mps 695 mmHg 47%
    06:00 +21°C° 0 mm 1 mps 695 mmHg 46%
    07:00 +24°C° 0 mm 2 mps 695 mmHg 39%
    08:00 +26°C° 0 mm 2 mps 696 mmHg 32%
    09:00 +28°C° 0 mm 2 mps 696 mmHg 25%
    10:00 +30°C° 0 mm 3 mps 696 mmHg 23%
    11:00 +31°C° 0 mm 3 mps 695 mmHg 21%
    12:00 +33°C° 0 mm 4 mps 695 mmHg 19%
    13:00 +33°C° 0 mm 4 mps 695 mmHg 19%
    14:00 +34°C° 0 mm 4 mps 695 mmHg 19%
    15:00 +34°C° 0 mm 4 mps 694 mmHg 19%
    16:00 +33°C° 0 mm 4 mps 694 mmHg 21%
    17:00 +32°C° 0 mm 4 mps 694 mmHg 24%
    18:00 +29°C° 0 mm 3 mps 694 mmHg 26%
    19:00 +27°C° 0 mm 3 mps 694 mmHg 31%
    20:00 +25°C° 0 mm 2 mps 694 mmHg 37%
    21:00 +23°C° 0 mm 2 mps 694 mmHg 42%
    22:00 +23°C° 0 mm 2 mps 694 mmHg 45%
    23:00 +21°C° 0 mm 2 mps 694 mmHg 47%

    26 August, Saturday

    Time Temperature Precipitation Wind Pressure Humidity
    00:00 +21°C° 0 mm 2 mps 694 mmHg 50%
    01:00 +20°C° 0 mm 2 mps 694 mmHg 50%
    02:00 +20°C° 0 mm 2 mps 694 mmHg 50%
    03:00 +20°C° 0 mm 2 mps 694 mmHg 50%
    04:00 +20°C° 0 mm 2 mps 694 mmHg 48%
    05:00 +20°C° 0 mm 2 mps 694 mmHg 46%
    06:00 +21°C° 0 mm 1 mps 694 mmHg 43%
    07:00 +23°C° 0 mm 2 mps 695 mmHg 38%
    08:00 +25°C° 0 mm 2 mps 695 mmHg 33%
    09:00 +28°C° 0 mm 3 mps 695 mmHg 28%
    10:00 +29°C° 0 mm 3 mps 695 mmHg 26%
    11:00 +30°C° 0 mm 4 mps 695 mmHg 24%
    12:00 +32°C° 0 mm 4 mps 694 mmHg 22%
    13:00 +33°C° 0 mm 4 mps 694 mmHg 21%
    14:00 +33°C° 0 mm 4 mps 694 mmHg 21%
    15:00 +33°C° 0 mm 5 mps 693 mmHg 21%
    16:00 +32°C° 0 mm 4 mps 693 mmHg 23%
    17:00 +30°C° 0 mm 4 mps 693 mmHg 25%
    18:00 +28°C° 0 mm 3 mps 693 mmHg 28%
    19:00 +27°C° 0 mm 3 mps 693 mmHg 33%
    20:00 +25°C° 0 mm 3 mps 693 mmHg 38%
    21:00 +23°C° 0 mm 2 mps 693 mmHg 43%
    22:00 +21°C° 0 mm 2 mps 693 mmHg 44%
    23:00 +21°C° 0 mm 2 mps 693 mmHg 46%

    27 August, Sunday

    Time Temperature Precipitation Wind Pressure Humidity
    00:00 +20°C° 0 mm 2 mps 693 mmHg 48%
    01:00 +20°C° 0 mm 2 mps 693 mmHg 47%
    02:00 +20°C° 0 mm 2 mps 693 mmHg 47%
    03:00 +19°C° 0 mm 2 mps 693 mmHg 46%
    04:00 +19°C° 0 mm 2 mps 693 mmHg 44%
    05:00 +19°C° 0 mm 2 mps 693 mmHg 41%
    06:00 +19°C° 0 mm 2 mps 693 mmHg 39%
    07:00 +23°C° 0 mm 2 mps 694 mmHg 35%
    08:00 +25°C° 0 mm 2 mps 694 mmHg 30%
    09:00 +27°C° 0 mm 2 mps 694 mmHg 26%
    10:00 +29°C° 0 mm 3 mps 694 mmHg 25%
    11:00 +30°C° 0 mm 3 mps 694 mmHg 23%
    12:00 +32°C° 0 mm 4 mps 693 mmHg 22%
    13:00 +32°C° 0 mm 4 mps 693 mmHg 22%
    14:00 +32°C° 0 mm 4 mps 693 mmHg 22%
    15:00 +33°C° 0 mm 4 mps 692 mmHg 23%
    16:00 +30°C° 0 mm 4 mps 692 mmHg 26%
    17:00 +29°C° 0 mm 4 mps 692 mmHg 29%
    18:00 +28°C° 0 mm 3 mps 692 mmHg 32%
    19:00 +26°C° 0 mm 3 mps 692 mmHg 37%
    20:00 +25°C° 0 mm 3 mps 692 mmHg 41%
    21:00 +23°C° 0 mm 2 mps 692 mmHg 46%
    22:00 +21°C° 0 mm 2 mps 692 mmHg 48%
    23:00 +21°C° 0 mm 2 mps 692 mmHg 49%
    Show more